This is the latest recevied weather packets stored in our database for station/object KC5DAQ-29. If no packets are shown the sender has not sent any weather packets the latest 10 day(s).
| Time | Temp. | Humidity | Pressure | Rain* | Wind** | Luminosity | Snow |
|---|---|---|---|---|---|---|---|
| 1777663597 | 16.67° C | 100% | 1006.3 hPa | 6.1 mm | - | 55 W/m² | - |
| 1777663537 | 16.67° C | 100% | 1006.2 hPa | 6.35 mm | - | 55 W/m² | - |
| 1777663478 | 16.67° C | 100% | 1006.4 hPa | 6.35 mm | - | 55 W/m² | - |
| 1777663418 | 16.67° C | 100% | 1006.4 hPa | 6.6 mm | - | 55 W/m² | - |
| 1777663358 | 16.67° C | 100% | 1006.6 hPa | 6.6 mm | - | 55 W/m² | - |
| 1777663298 | 16.67° C | 100% | 1006.5 hPa | 6.6 mm | - | - | - |
| 1777663237 | 16.67° C | 100% | 1006.6 hPa | 6.35 mm | - | - | - |
| 1777663177 | 16.67° C | 100% | 1006.5 hPa | 6.6 mm | - | - | - |
| 1777663117 | 16.67° C | 100% | 1006.4 hPa | 6.6 mm | - | - | - |
| 1777663054 | 16.67° C | 100% | 1006.4 hPa | 5.84 mm | - | - | - |
| 1777662994 | 16.67° C | 100% | 1006.4 hPa | 5.84 mm | - | 11 W/m² | - |
| 1777662935 | 16.67° C | 100% | 1006.5 hPa | 5.84 mm | - | 11 W/m² | - |
| 1777662874 | 16.67° C | 100% | 1006.5 hPa | 5.84 mm | - | 11 W/m² | - |
| 1777662814 | 16.67° C | 100% | 1006.4 hPa | 6.1 mm | - | 11 W/m² | - |
| 1777662754 | 16.67° C | 100% | 1006.5 hPa | 6.1 mm | - | 11 W/m² | - |
| 1777662694 | 16.67° C | 100% | 1006.5 hPa | 6.1 mm | - | 11 W/m² | - |
| 1777662635 | 16.67° C | 100% | 1006.5 hPa | 5.84 mm | - | 11 W/m² | - |
| 1777662574 | 16.67° C | 100% | 1006.5 hPa | 5.84 mm | - | 11 W/m² | - |
| 1777662512 | 16.67° C | 100% | 1006.7 hPa | 5.84 mm | - | 11 W/m² | - |
| 1777662451 | 16.67° C | 100% | 1006.8 hPa | 5.59 mm | - | 11 W/m² | - |
| 1777662382 | 16.67° C | 100% | 1006.8 hPa | 5.59 mm | - | 12 W/m² | - |
| 1777662318 | 16.67° C | 100% | 1006.8 hPa | 5.33 mm | - | 12 W/m² | - |
| 1777662257 | 16.67° C | 100% | 1006.7 hPa | 5.33 mm | - | 12 W/m² | - |
| 1777662193 | 16.67° C | 100% | 1006.6 hPa | 5.59 mm | - | 12 W/m² | - |
| 1777662131 | 16.67° C | 100% | 1006.5 hPa | 5.33 mm | - | 11 W/m² | - |
* Rain latest hour (hover to see other rain measurements)
** Current wind speed in m/s (hover to see current wind gust speed)